|
|
|
|
|
 |
|
|
|
|
|
1996 |
Orbital Elements
Epoch 1996 Apr. 27.0 TT = JDT 2450200.5
T 1996 May 1.39481 TT
q 0.2302239 (2000.0) P Q
z +0. Peri. 130.17654 -0. -0.
+/-0. Node 188.04546 -0. -0.
e 0.9997730 Incl. 124.92379 +0. -0. |
|
|
|
|
|
|
 |
|
|
|
|
|
|
|
|
|
|
1996.03.23 - from Rome city! |
1996.03.24_03h 05m U.T. |
1996.03.24_23h 30m U.T. FFC |
1996.03.24_23h 30m U.T. 300mm |
1996.03.24_23h 45m U.T. 300mm |
|
|
|
|
|
|
|
|
|
|
|
|
|
|
|
1996.03.24_23h 55m U.T. FFC |
1996.03.24_23h 55m U.T. 300mm |
1996.03.30_00h 10m U.T. FFC |
1996.03.30_00h 23m U.T. FFC |
1996.03.30_00h 23m U.T. 300mm |
|
|
|
|
|
|
|
|
|
|
|
|
|
|
|
1996.04.06_19h 00m U.T. FFC |
1996.04.06_19h 00m U.T. 300mm |
1996.04.06_19h 05m U.T. FFC |
1996.04.06_19h 05m U.T. 300mm |
1996.04.06_19h 20m U.T. FFC |
|
|
|
|
|
|
|
|
|
|
|
|
|
|
|
1996.04.06_19h 20m U.T. 300mm |
1996.04.06_19h 51m U.T. FFC |
1996.04.06_19h 51m U.T. 300mm |
1996.04.10_19h 15m U.T. FFC |
1996.04.10_19h 15m U.T. 300mm |
|
|
|
|
|
|
|
|
|
|
|
|
|
|
|
|
|
|
|
|
 |
|
|
|
|
|
|
|
|
|
|